Weather Service Report


698 
ASUS45 KSLC 210310
RWRUT 

UTAH REGIONAL WEATHER ROUNDUP
NATIONAL WEATHER SERVICE SALT LAKE CITY UT
900 PM MDT FRI OCT 20 2017

UTZ001>011-023>025-210400-

NORTHERN UTAH
  
CITY           SKY/WX    TMP DP  RH WIND       PRES   REMARKS
BRIGHAM CITY   PTCLDY    41  24  50 N6        29.96R                  
HILL AFB       CLEAR     41  23  48 N8        29.94R                  
LOGAN          CLOUDY    42  27  55 W10       29.94R                  
OGDEN          CLEAR     40  24  53 N6        29.94R                  
SALT LAKE CITY PTCLDY    45  28  51 N5        29.94R                  
TOOELE VALLEY  PTCLDY    39  23  52 N10       29.97R WCI  32          
WENDOVER       MOCLDY    44  20  38 NW8       29.99R                  
WEST JORDAN    PTCLDY    43  25  48 NW10      29.96R                  

$$

UTZ011>015-024>027-210400-

CENTRAL/NORTHEAST UTAH
  
CITY           SKY/WX    TMP DP  RH WIND       PRES   REMARKS
PROVO AIRPORT  PTCLDY    46  26  45 N16G23    29.94R                  
MOAB/CANYONLAN CLOUDY    57  30  35 NW17      29.69R                  
DELTA          PTCLDY    43  14  31 N10       29.97R                  
PRICE          CLEAR     41  20  43 NW16G24   29.84R                  
ROOSEVELT      CLOUDY    45  16  31 W24G36    29.78R                  
VERNAL         CLOUDY    48  26  42 VRB5      29.77R                  

$$

UTZ013>016-019>022-027-210400-

SOUTHERN UTAH
  
CITY           SKY/WX    TMP DP  RH WIND       PRES   REMARKS
BRYCE CANYON   PTCLDY    39  33  79 W10       29.92R WCI  32          
CEDAR CITY     PTCLDY    43  27  53 N7        29.92R                  
MILFORD        PTCLDY    46  18  32 N17       29.94R                  
ST GEORGE      PTCLDY    70  35  27 W15G21    29.76R                  
HANKSVILLE     CLOUDY    54  25  32 NW22G28   29.79R                  
BLANDING         N/A     64  25  22 W14G28    29.79R                  

$$

REGIONAL REPORTS     COLORADO/ARIZONA
  
CITY           SKY/WX    TMP DP  RH WIND       PRES   REMARKS
CRAIG, CO      LGT RAIN  36  32  85 W10       29.86R WCI  28          
GRAND JUNCTION LGT RAIN  63  35  35 W20G36    29.65R                  
RIFLE, CO      CLOUDY    60  33  36 NW31G41   29.65R                  
MONTROSE, CO   CLOUDY    65  26  23 W28G56    29.67F SQUALL  HAZE     
CORTEZ, CO     CLOUDY    62  26  25 S16       29.73S                  
COLORADO CITY    N/A     61  32  33 SW14      29.85R                  
PAGE, AZ       PTCLDY    67  30  25 SW12G22   29.75R                  
GRAND CANYON   MOCLDY    52  35  52 SW10      29.93R                  
KINGMAN, AZ    PTCLDY    64  34  32 SW3       29.83R                  
FLAGSTAFF, AZ  MOCLDY    50  40  68 SW15G21   29.98R                  

$$

REGIONAL REPORTS    NEVADA/IDAHO/WYOMING
  
CITY           SKY/WX    TMP DP  RH WIND       PRES   REMARKS
LAS VEGAS, NV  MOCLDY    74  26  16 NW15G22   29.76R                  
ELY, NY        MOCLDY    32  10  40 N3        30.02R                  
ELKO, NV       MOCLDY    37  20  50 SW10      30.01R WCI  30          
POCATELLO, ID  CLEAR     39  29  67 SW28      29.89R WCI  28          
BURLEY, ID     MOCLDY    38  30  73 SW10      29.94R WCI  31          
FORT BRIDGER,    N/A     31  26  81 SW8       29.91R WCI  24          
EVANSTON, WY   CLEAR     28  23  81 W12       29.90R WCI  18          
ROCK SPRINGS,  CLOUDY    34  19  54 W16G23    29.84R WCI  24          

$$
  

Return to Home page


Western Regional Climate Center, wrcc@dri.edu